Flag for Canada Weather past 2 weeks in Laval, Quebec, Canada

Now
52 °F

Sprinkles. Overcast.


Feels Like: 49 °F
Forecast: 42 / 57 °F
Wind: 7 mph from Northeast

Location: Montreal / Mirabel

Current Time: Apr 27, 2015 at 1:19:45 PM

Latest Report: Apr 27, 2015 at 12:00 PM


Visibility: 45 mi

Pressure: 29.78 "Hg

Humidity: 58%

Dew point: 37 °F

Location of LavalLocation

Historic Weather in Laval — Graph

°F

Laval temperature yesterday

Maximum temperature yesterday: 52 °F (at 2:00 PM)
Minimum temperature yesterday: 36 °F (at 6:00 AM)
Average temperature yesterday: 45 °F

Past Weeks' High & Low Weather Summary

 TemperatureHumidityPressure
High72 °F (Apr 13, 3:00 PM)100% (Apr 20, 4:00 PM)30.49 "Hg (Apr 20, 4:00 PM)
Low28 °F (Apr 16, 4:00 AM)12% (Apr 15, 3:00 PM)29.51 "Hg (Apr 23, 5:00 AM)
Average45 °F59%29.91 "Hg
* Reported Apr 12 12:00 Noon — Apr 27 12:00 Noon, Laval, Weather by CustomWeather, © 2015

Note: Actual official high and low records may vary slightly from our data, if they occured in-between our weather recording intervals... More about our weather records

Advertising

Laval weather history for previous 24 hours

 ConditionsComfort  
Time TempWeatherWind HumidityBarometerVisibility
12:00 PM
Mon, Apr 27
52 °FSprinkles. Overcast.7 mph58%29.78 "Hg45 mi
11:00 AM50 °FMostly cloudy.9 mph62%29.77 "Hg25 mi
10:00 AM50 °FMostly cloudy.9 mph67%29.75 "Hg45 mi
9:00 AM45 °FMostly cloudy.3 mph87%29.75 "Hg45 mi
8:00 AM41 °FMore clouds than sun.5 mph100%29.75 "Hg45 mi
7:00 AM39 °FBroken clouds.No wind100%29.75 "Hg30 mi
6:00 AM39 °FOvercast.2 mph93%29.73 "Hg25 mi
5:00 AM39 °FSprinkles. Overcast.2 mph93%29.72 "Hg15 mi
4:00 AM39 °FSprinkles. Mostly cloudy.No wind93%29.72 "Hg15 mi
3:00 AM39 °FMostly cloudy.No wind87%29.71 "Hg20 mi
2:00 AM41 °FPassing clouds.3 mph81%29.71 "Hg25 mi
1:00 AM41 °FPassing clouds.3 mph81%29.71 "Hg25 mi
12:00 AM41 °FPassing clouds.3 mph81%29.71 "Hg25 mi
11:00 PM
Sun, Apr 26
41 °FPartly cloudy.5 mph81%29.72 "Hg25 mi
10:00 PM43 °FPassing clouds.5 mph76%29.72 "Hg25 mi
9:00 PM46 °FMostly cloudy.8 mph66%29.73 "Hg25 mi
8:00 PM48 °FMostly cloudy.9 mph62%29.72 "Hg25 mi
7:00 PM48 °FMostly cloudy.12 mph62%29.72 "Hg25 mi
6:00 PM50 °FMostly cloudy.7 mph62%29.71 "Hg20 mi
5:00 PM52 °FSprinkles. Mostly cloudy.2 mph50%29.70 "Hg45 mi
4:00 PM52 °FMostly cloudy.5 mph47%29.69 "Hg45 mi
3:00 PM52 °FOvercast.6 mph47%29.70 "Hg45 mi
2:00 PM52 °FOvercast.3 mph47%29.71 "Hg45 mi
1:00 PM50 °FCool.2 mph50%29.72 "Hg45 mi
Weather by CustomWeather, © 2015

See weather overviewHow to use our weather pages